User: anonymous   Login
Location: Pine Mountain Observatory
(43.7910°N, 120.9377°W)
Time: 08:19:13
(UTC-07:00)
Language:

SR - Orbit

View from above orbital plane
View from above orbital plane
View from above satellite
View from above satellite

Ground track
Ground track

The orbit data is extracted from the following two-line orbital elements,

1    46U 60007B   19138.89593900  .00000015  00000-0  26268-4 0  9992
2    46  66.6921  35.2817 0203372  65.0798 297.1293 14.49225626 81788
Epoch (UTC): 18 May 2019 21:30:09
Eccentricity: 0.0203372
inclination: 66.6921°
perigee height: 583 km
apogee height: 873 km
right ascension of ascending node: 35.2817°
argument of perigee: 65.0798°
revolutions per day: 14.49225626
mean anomaly at epoch: 297.1293°
orbit number at epoch: 8178

The dashed part of the orbit path shows where the satellite is in the earth's shadow,  

DLR